Santiago, Dominican Republic

11:54 PM AST on May 29, 2017 (GMT -0400)
Cibao International

Weather History for MDST - January, 2014

Change the Weather History Date:

Monday, January 20, 2014

  Actual Average Record
Temperature  
Mean Temperature 75 °F -  
Max Temperature 86 °F 85 °F 87 °F (1998)
Min Temperature 64 °F 65 °F 56 °F (2017)
Cooling Degree Days 10    
Growing Degree Days 25 (Base 50)    
Moisture  
Dew Point 69 °F    
Average Humidity 83    
Maximum Humidity 100    
Minimum Humidity 55    
Precipitation  
Precipitation 0.00 in 0.06 in - ()
Sea Level Pressure  
Sea Level Pressure 30.03 in    
Wind  
Wind Speed 5 mph ()    
Max Wind Speed 18 mph    
Max Gust Speed -    
Visibility 5.9 miles    
Events      
Averages and records for this station are not official NWS values.
T = Trace of Precipitation, MM = Missing Value Source: Averaged Metar Reports

Daily Weather History Graph

Daily Weather History Graph

Search for Another Location

Airport or City:

Trip Planner

Search our weather history database for the weather conditions in past years. The results will help you decide how hot, cold, wet, or windy it might be!

Date:

Astronomy

Jan. 20, 2014 Rise Set
Actual Time 7:19 AM AST 6:28 PM AST
Civil Twilight 6:56 AM AST 6:51 PM AST
Nautical Twilight 6:29 AM AST 7:18 PM AST
Astronomical Twilight 6:03 AM AST 7:44 PM AST
Moon 10:17 PM AST (1/20) 9:56 AM AST (1/20)
Length of Visible Light 11h 55m
Length of Day
11h 08m
Waning Gibbous, 83% of the Moon is Illuminated
Jan 20
Waning Gibbous
Jan 24
Last Quarter
Jan 30
New
Feb 6
First Quarter
Feb 14
Full

Hourly Weather History & Observations

Time (AST) Temp. Heat Index Dew Point Humidity Pressure Visibility Wind Dir Wind Speed Gust Speed Precip Events Conditions
12:00 AM 71.6 °F - 69.8 °F 94% 30.09 in 6.2 mi Variable 2.3 mph - N/A   Mostly Cloudy
1:00 AM 71.6 °F - 69.8 °F 94% 30.06 in 6.2 mi Variable 2.3 mph - N/A   Mostly Cloudy
2:00 AM 69.8 °F - 68.0 °F 94% 30.04 in 6.2 mi Calm Calm - N/A   Partly Cloudy
3:00 AM 68.0 °F - 66.2 °F 94% 30.04 in 6.2 mi Variable 2.3 mph - N/A   Mostly Cloudy
4:00 AM 68.0 °F - 66.2 °F 94% 30.01 in 6.2 mi Variable 2.3 mph - N/A   Mostly Cloudy
5:00 AM 67 °F - 65 °F 93% 30.04 in 6 mi Calm Calm - -   Haze
5:00 AM 66.2 °F - 66.2 °F 100% 30.04 in 6.2 mi Calm Calm - N/A   Mostly Cloudy
6:00 AM 64.4 °F - 64.4 °F 100% 30.04 in 6.2 mi Calm Calm - N/A   Mostly Cloudy
7:00 AM 64.4 °F - 64.4 °F 100% 30.04 in 6.2 mi Variable 2.3 mph - N/A   Mostly Cloudy
8:00 AM 64.4 °F - 62.6 °F 94% 30.06 in 6.2 mi Calm Calm - N/A   Mostly Cloudy
9:00 AM 69.8 °F - 68.0 °F 94% 30.09 in 6.2 mi Variable 2.3 mph - N/A   Mostly Cloudy
10:00 AM 73.4 °F - 71.6 °F 94% 30.09 in 2.5 mi East 10.4 mph - N/A   Scattered Clouds
11:00 AM 75.2 °F - 69.8 °F 83% 30.09 in 3.1 mi East 8.1 mph - N/A   Mostly Cloudy
12:00 PM 80.6 °F 84.6 °F 71.6 °F 74% 30.06 in 6.2 mi East 8.1 mph - N/A   Mostly Cloudy
1:00 PM 82.4 °F 87.2 °F 71.6 °F 70% 30.04 in 6.2 mi East 16.1 mph - N/A   Scattered Clouds
2:00 PM 84.2 °F 89.6 °F 71.6 °F 66% 29.98 in 6.2 mi ESE 13.8 mph - N/A   Partly Cloudy
3:00 PM 86.0 °F 89.4 °F 68.0 °F 55% 29.95 in 6.2 mi SE 16.1 mph - N/A   Partly Cloudy
4:00 PM 86.0 °F 90.4 °F 69.8 °F 58% 29.95 in 6.2 mi ESE 15.0 mph - N/A   Partly Cloudy
5:00 PM 86.0 °F 90.4 °F 69.8 °F 58% 29.95 in 6.2 mi ESE 18.4 mph - N/A   Partly Cloudy
6:00 PM 82.4 °F 86.3 °F 69.8 °F 66% 29.95 in 6.2 mi ESE 9.2 mph - N/A   Partly Cloudy
7:00 PM 80.6 °F 83.9 °F 69.8 °F 70% 29.98 in 6.2 mi ESE 16.1 mph - N/A   Scattered Clouds
8:00 PM 77.0 °F - 69.8 °F 78% 30.01 in 6.2 mi ESE 11.5 mph - N/A   Scattered Clouds
9:00 PM 75.2 °F - 69.8 °F 83% 30.01 in 6.2 mi ESE 9.2 mph - N/A   Scattered Clouds
10:00 PM 73.4 °F - 69.8 °F 88% 30.04 in 6.2 mi South 5.8 mph - N/A   Mostly Cloudy
11:00 PM 73.4 °F - 69.8 °F 88% 30.04 in 6.2 mi South 4.6 mph - N/A   Mostly Cloudy